Weather in Baalbek

Lebanon     34°00′26″N   36°13′01″E
temp.,
°C
wind,
m/s
gust,
m/s
humid.,
%
clouds,
%
prec.,
mm/h
press.,
hPa
HPBL,
m
23 september, thu
thu2300:00+16ssw56480 0.0 101086
03:00+14ssw57580 0.0 1010113
06:00+12ssw68740 0.0 1010155
09:00+17sw68530 0.0 1009589
12:00+20sw910380 0.0 10091385
15:00+20wsw710430 0.0 10071401
18:00+16sw79500 0.0 10091114
21:00+12ssw47839 0.0 1010227
24 september, fri
fri2400:00+12sw598224 0.0 1010308
03:00+11ssw378653 0.1 1010256
06:00+12sw698183 0.3 1010745
09:00+14sw586672 0.5 10111217
12:00+17sw78450 0.1 10111391
15:00+18sw66370 0.1 10101400
18:00+15wsw44480 0.0 1012813
21:00+12s01700 0.0 101513
25 september, sat
sat2500:00+10e11760 0.0 101612
03:00+9ene11790 0.0 101610
06:00+8se11790 0.0 101710
09:00+14wnw11520 0.0 1018467
12:00+18wnw22340 0.0 10171066
15:00+22nw32290 0.0 10151289
18:00+19nne56320 0.0 1016296
21:00+15ese22450 0.0 101815
26 september, sun
sun2600:00+13ese11490 0.0 101811
03:00+12se11510 0.0 101811
06:00+12s11480 0.0 101811
09:00+19wsw22280 0.0 1018303
12:00+23wsw33150 0.0 10171109
15:00+25w32110 0.0 10151654
18:00+22nw12195 0.0 101522
21:00+17ese22270 0.0 101612
27 september, mon
mon2700:00+16s22300 0.0 101511
03:00+16s33320 0.0 101412
06:00+16ssw33340 0.0 101412
09:00+22wsw46275 0.0 1013728
12:00+25sw67245 0.0 10121756
15:00+26wsw77220 0.0 10102387
18:00+23wsw34340 0.0 1010121
21:00+17s34580 0.0 101260